Weather History for South Marsh 268, LA

Change the Weather History Date:

Wednesday, April 23, 2014

  Actual Average Record
Temperature  
Mean Temperature 74 °F -  
Max Temperature 80 °F - - ()
Min Temperature 69 °F - - ()
Cooling Degree Days 10    
Growing Degree Days 24 (Base 50)    
Moisture  
Dew Point 67 °F    
Average Humidity 81    
Maximum Humidity 94    
Minimum Humidity 58    
Precipitation  
Precipitation 0.00 in - - ()
Sea Level Pressure  
Sea Level Pressure 29.95 in    
Wind  
Wind Speed 7 mph (WNW)    
Max Wind Speed 10 mph    
Max Gust Speed 16 mph    
Visibility 7 miles    
Events Fog    
T = Trace of Precipitation, MM = Missing Value Source: NWS Daily Summary

Daily Weather History Graph

Daily Weather History Graph

Search for Another Location

Airport:

Trip Planner

Search our weather history database for the weather conditions in past years. The results will help you decide how hot, cold, wet, or windy it might be!

Date:

Astronomy

Apr. 23, 2014 Rise Set
Actual Time 6:33 AM CDT 7:38 PM CDT
Civil Twilight 6:08 AM CDT 8:03 PM CDT
Nautical Twilight 5:39 AM CDT 8:32 PM CDT
Astronomical Twilight 5:09 AM CDT 9:02 PM CDT
Moon 2:36 AM CDT (4/23) 2:14 PM CDT (4/23)
Length of Visible Light 13h 54m
Length of Day
13h 05m
Waning Crescent, 34% of the Moon is Illuminated
Apr 23
Waning Crescent
Apr 29
New
May 6
First Quarter
May 14
Full
May 21
Last Quarter

Hourly Weather History & Observations

Time (CDT) Temp. Heat Index Dew Point Humidity Pressure Visibility Wind Dir Wind Speed Gust Speed Precip Events Conditions
12:15 AM 69.8 °F - 68.0 °F 94% 29.95 in 6.0 mi WNW 10.4 mph - N/A   Mostly Cloudy
12:35 AM 69.8 °F - 68.0 °F 94% 29.95 in 6.0 mi WNW 10.4 mph - N/A   Scattered Clouds
12:55 AM 69.8 °F - 68.0 °F 94% 29.95 in 6.0 mi WNW 10.4 mph - N/A   Partly Cloudy
1:15 AM 69.8 °F - 68.0 °F 94% 29.95 in 6.0 mi WNW 10.4 mph - N/A   Partly Cloudy
1:35 AM 69.8 °F - 68.0 °F 94% 29.95 in 5.0 mi WNW 10.4 mph - N/A   Partly Cloudy
1:55 AM 69.8 °F - 68.0 °F 94% 29.95 in 5.0 mi WNW 10.4 mph - N/A   Mostly Cloudy
2:15 AM 69.8 °F - 68.0 °F 94% 29.94 in 5.0 mi WNW 10.4 mph - N/A   Mostly Cloudy
2:35 AM 69.8 °F - 68.0 °F 94% 29.94 in 5.0 mi WNW 9.2 mph - N/A   Partly Cloudy
2:55 AM 69.8 °F - 68.0 °F 94% 29.94 in 4.0 mi WNW 10.4 mph - N/A   Clear
3:15 AM 69.8 °F - 68.0 °F 94% 29.94 in 4.0 mi WNW 9.2 mph - N/A   Clear
3:35 AM 69.8 °F - 68.0 °F 94% 29.95 in 4.0 mi WNW 8.1 mph - N/A   Scattered Clouds
3:55 AM 69.8 °F - 68.0 °F 94% 29.95 in 5.0 mi WNW 6.9 mph - N/A   Mostly Cloudy
4:15 AM 69.8 °F - 68.0 °F 94% 29.95 in 5.0 mi WNW 6.9 mph - N/A   Overcast
4:35 AM 69.8 °F - 68.0 °F 94% 29.94 in 5.0 mi WNW 6.9 mph - N/A   Overcast
4:55 AM 69.8 °F - 68.0 °F 94% 29.95 in 5.0 mi WNW 8.1 mph - N/A   Mostly Cloudy
5:15 AM 69.8 °F - 68.0 °F 94% 29.95 in 5.0 mi WNW 6.9 mph - N/A   Mostly Cloudy
5:35 AM 69.8 °F - 68.0 °F 94% 29.95 in 6.0 mi NW 8.1 mph - N/A   Scattered Clouds
5:55 AM 69.8 °F - 68.0 °F 94% 29.95 in 5.0 mi NW 8.1 mph - N/A   Partly Cloudy
6:15 AM 69.8 °F - 68.0 °F 94% 29.96 in 5.0 mi NW 8.1 mph - N/A   Mostly Cloudy
6:35 AM 69.8 °F - 68.0 °F 94% 29.96 in 6.0 mi NW 6.9 mph - N/A   Mostly Cloudy
6:55 AM 69.8 °F - 68.0 °F 94% 29.97 in 6.0 mi NW 6.9 mph - N/A   Scattered Clouds
7:15 AM 69.8 °F - 68.0 °F 94% 29.98 in 7.0 mi NW 6.9 mph - N/A   Clear
7:35 AM 71.6 °F - 68.0 °F 88% 29.98 in 7.0 mi NW 8.1 mph - N/A   Clear
7:55 AM 71.6 °F - 68.0 °F 88% 29.98 in 7.0 mi NW 4.6 mph - N/A   Clear
8:15 AM 73.4 °F - 68.0 °F 83% 29.99 in 7.0 mi Variable 3.5 mph - N/A   Clear
8:35 AM 69.8 °F - 68.0 °F 94% 29.99 in 0.2 mi NNE 6.9 mph - N/A Fog Fog
8:55 AM 69.8 °F - 68.0 °F 94% 29.99 in 0.2 mi NNE 6.9 mph - N/A Fog Fog
9:15 AM 69.8 °F - 68.0 °F 94% 30.00 in 0.2 mi Variable 5.8 mph - N/A Fog Fog
9:35 AM 69.8 °F - 68.0 °F 94% 30.01 in 0.2 mi Variable 4.6 mph - N/A Fog Fog
9:55 AM 71.6 °F - 68.0 °F 88% 30.01 in 3.0 mi Calm Calm - N/A   Overcast
10:15 AM 71.6 °F - 66.2 °F 83% 30.01 in 6.0 mi NNE 4.6 mph - N/A   Haze
10:35 AM 71.6 °F - 66.2 °F 83% 30.01 in 5.0 mi NE 3.5 mph - N/A   Haze
10:55 AM 71.6 °F - 66.2 °F 83% 30.01 in 6.0 mi Calm Calm - N/A   Haze
11:15 AM 71.6 °F - 66.2 °F 83% 30.01 in 7.0 mi Calm Calm - N/A   Clear
11:35 AM 73.4 °F - 66.2 °F 78% 30.01 in 8.0 mi Calm Calm - N/A   Clear
11:55 AM 75.2 °F - 66.2 °F 73% 30.01 in 8.0 mi Calm Calm - N/A   Clear
12:15 PM 77.0 °F - 66.2 °F 69% 30.00 in 9.0 mi Calm Calm - N/A   Clear
12:35 PM 77.0 °F - 66.2 °F 69% 30.00 in 10.0 mi WNW 4.6 mph - N/A   Clear
12:55 PM 77.0 °F - 66.2 °F 69% 30.00 in 8.0 mi Calm Calm - N/A   Clear
1:15 PM 77.0 °F - 66.2 °F 69% 29.99 in 10.0 mi Calm Calm - N/A   Clear
1:35 PM 77.0 °F - 66.2 °F 69% 29.99 in 10.0 mi Calm Calm - N/A   Clear
1:55 PM 77.0 °F - 66.2 °F 69% 29.98 in 10.0 mi Calm Calm - N/A   Clear
2:15 PM 78.8 °F - 66.2 °F 65% 29.97 in 10.0 mi Calm Calm - N/A   Clear
2:35 PM 80.6 °F 82.7 °F 66.2 °F 61% 29.97 in 9.0 mi Calm Calm - N/A   Clear
2:55 PM 78.8 °F - 66.2 °F 65% 29.96 in 10.0 mi Calm Calm - N/A   Clear
3:15 PM 80.6 °F 82.7 °F 66.2 °F 61% 29.95 in 10.0 mi Calm Calm - N/A   Clear
3:35 PM 80.6 °F 82.7 °F 66.2 °F 61% 29.94 in 10.0 mi Calm Calm - N/A   Clear
3:55 PM 80.6 °F 82.7 °F 66.2 °F 61% 29.93 in 10.0 mi Calm Calm - N/A   Clear
4:15 PM 80.6 °F 82.3 °F 64.4 °F 58% 29.92 in 10.0 mi SSE 3.5 mph - N/A   Clear
4:35 PM 78.8 °F - 64.4 °F 61% 29.92 in 10.0 mi SSE 5.8 mph - N/A   Clear
4:55 PM 78.8 °F - 64.4 °F 61% 29.91 in 10.0 mi SSE 4.6 mph - N/A   Clear
5:15 PM 78.8 °F - 64.4 °F 61% 29.91 in - Variable 3.5 mph - N/A   Clear
5:35 PM 80.6 °F 82.3 °F 64.4 °F 58% 29.91 in 10.0 mi Variable 4.6 mph - N/A   Clear
5:55 PM 78.8 °F - 64.4 °F 61% 29.91 in 10.0 mi SSE 8.1 mph - N/A   Clear
6:15 PM 78.8 °F - 64.4 °F 61% 29.91 in 10.0 mi Variable 5.8 mph - N/A   Clear
6:35 PM 77.0 °F - 64.4 °F 65% 29.91 in 10.0 mi South 6.9 mph - N/A   Clear
6:55 PM 77.0 °F - 64.4 °F 65% 29.91 in 10.0 mi SSE 5.8 mph - N/A   Clear
7:15 PM 75.2 °F - 64.4 °F 69% 29.90 in 10.0 mi SSE 10.4 mph - N/A   Clear
7:35 PM 75.2 °F - 64.4 °F 69% 29.90 in 10.0 mi SSE 9.2 mph - N/A   Clear
7:55 PM 73.4 °F - 66.2 °F 78% 29.91 in 10.0 mi Variable 4.6 mph - N/A   Clear
8:15 PM 73.4 °F - 66.2 °F 78% 29.91 in 9.0 mi Variable 5.8 mph 12.7 mph N/A   Clear
8:35 PM 73.4 °F - 66.2 °F 78% 29.91 in 10.0 mi SSE 10.4 mph 16.1 mph N/A   Clear
8:55 PM 73.4 °F - 64.4 °F 73% 29.92 in 10.0 mi SSE 9.2 mph - N/A   Clear
9:15 PM 73.4 °F - 66.2 °F 78% 29.92 in 10.0 mi Variable 6.9 mph 16.1 mph N/A   Clear
9:35 PM 71.6 °F - 66.2 °F 83% 29.92 in 9.0 mi SSE 10.4 mph - N/A   Clear
9:55 PM 71.6 °F - 66.2 °F 83% 29.92 in 9.0 mi SSE 10.4 mph - N/A   Clear
10:15 PM 71.6 °F - 66.2 °F 83% 29.93 in 9.0 mi Variable 5.8 mph 12.7 mph N/A   Clear
10:35 PM 71.6 °F - 66.2 °F 83% 29.93 in 9.0 mi Variable 4.6 mph - N/A   Clear
10:55 PM 71.6 °F - 68.0 °F 88% 29.93 in 9.0 mi Variable 4.6 mph 11.5 mph N/A   Partly Cloudy
11:15 PM 71.6 °F - 66.2 °F 83% 29.93 in 9.0 mi Variable 3.5 mph - N/A   Partly Cloudy
11:35 PM 71.6 °F - 66.2 °F 83% 29.93 in 9.0 mi Variable 3.5 mph - N/A   Partly Cloudy
11:55 PM 71.6 °F - 66.2 °F 83% 29.94 in 9.0 mi Variable 3.5 mph - N/A   Clear